[[{"header":{"parameterUnit":"m.s-1","parameterCategory":1,"la1":30.2991,"la2":30.254,"lo1":-89.0895,"lo2":-89.0444,"dy":0.0017,"dx":0.0017,"nx":28,"ny":28,"refTime":"2024-12-21T03:00:00:Z","depth":0,"parameterNumber":2,"parameterNumberName":"U-component_of_WINDS"},"data":[0,0,0,0,0,0,0,0,0,0,0,0,0,0,0,0,0,0,0,0,0,0,0,0,0,0,0,0,0,0,0,0,0,0,0,0,0,0,0,0,0,0,0,0,0,0,0,0,0,0,0,0,0,0,0,0,0,0,2.6266,2.6266,0,2.6325,2.6326,2.6327,2.6299,2.6298,2.6296,2.6295,2.6356,2.6359,2.6362,0,0,0,0,0,0,0,0,0,0,0,0,0,2.613,2.6132,2.6266,2.6266,2.6267,2.6325,2.6326,2.6327,2.63,2.6298,2.6296,2.6294,2.6355,2.6358,2.6362,0,0,0,0,0,0,0,0,0,0,0,0,0,2.6189,2.6133,2.6265,2.6261,2.6261,2.6325,2.6326,2.6327,2.63,2.6298,2.6296,2.6294,2.6354,2.6358,2.6362,2.6435,0,0,2.6376,2.6378,0,0,0,0,0,0,0,0,2.6186,2.6194,2.6261,2.6261,2.6261,2.6303,2.63,2.6363,2.6301,2.6285,2.6295,2.6292,2.634,2.6345,2.6362,2.6438,2.644,2.6377,2.6379,2.6381,2.6383,0,0,0,0,0,0,0,2.6182,2.6191,2.6289,2.6262,2.6262,2.6256,2.6262,2.6312,2.6324,2.6286,2.6284,2.6292,2.634,2.6357,2.6363,2.6441,2.6377,2.6381,2.6383,2.6385,2.6583,2.6586,0,0,0,0,0,0,2.6177,2.6188,2.6287,2.6291,2.6217,2.626,2.6267,2.6292,2.6324,2.6326,2.6294,2.629,2.6351,2.6358,2.6365,2.6454,2.6381,2.6386,2.6388,2.6581,2.6584,2.6587,0,0,0,0,0,0,2.6175,2.6187,2.6285,2.6239,2.6251,2.6265,2.6293,2.6294,2.6311,2.6329,2.6331,2.6309,2.6349,2.6358,2.6419,2.6455,2.6388,2.6392,2.6578,2.6582,2.6585,2.6631,0,0,0,0,0,0,2.6171,2.6186,2.6213,2.624,2.6254,2.6337,2.6295,2.6297,2.6319,2.6316,2.6345,2.6347,2.6348,2.6412,2.6423,2.646,2.6395,2.6575,2.658,2.6584,2.6626,2.6636,2.6644,0,0,0,0,0,2.6166,2.6223,2.6214,2.6226,2.6288,2.6339,2.6347,2.6347,2.6322,2.635,2.6362,2.6346,2.645,2.6418,2.6431,2.647,2.6572,2.6578,2.6584,2.6622,2.6634,2.6644,0,0,0,0,0,0,2.6199,2.6226,2.6217,2.6284,2.631,2.6335,2.637,2.6359,2.6392,2.6387,2.6386,2.6393,2.6456,2.6469,2.6433,2.6543,2.6507,2.6516,2.6532,2.6544,2.6553,2.6548,2.6399,0,0,0,0,0,2.6214,2.6253,2.6275,2.6332,2.6345,2.6356,2.6378,2.6376,2.6402,2.6413,2.6429,2.6456,2.6494,2.652,2.6556,2.6628,2.6635,2.6662,2.6671,2.6678,2.6685,2.6727,2.674,2.6606,2.6606,2.6606,0,0,2.6245,2.6265,2.629,2.6339,2.6359,2.64,2.6365,2.6409,2.6441,2.642,2.6478,2.6491,2.6521,2.6588,2.6618,2.6601,2.6724,2.6685,2.6691,2.6695,2.6734,2.6747,2.6758,2.661,2.6609,2.6608,0,0,2.6324,2.6342,2.6393,2.6414,2.6444,2.6451,2.6464,2.6491,2.6499,2.6558,2.6544,2.6581,2.6647,2.6669,2.6689,2.678,2.6767,2.6792,2.6839,2.6879,2.689,2.6899,2.6933,2.6945,2.6799,2.6799,2.6799,0,2.6359,2.642,2.642,2.6467,2.649,2.6474,2.6526,2.6546,2.6587,2.6604,2.6584,2.6668,2.6687,2.676,2.6783,2.6799,2.6814,2.6788,2.6889,2.6898,2.6907,2.6939,2.6952,2.6802,2.6802,2.6801,2.6801,0,2.6463,2.6506,2.6544,2.6585,2.6612,2.6661,2.6669,2.6697,2.6693,2.6703,2.6764,2.6786,2.6828,2.6845,2.6841,2.6919,2.6908,2.6888,2.6852,2.6922,2.6953,2.6965,2.6806,2.6805,2.6804,2.6804,0,0,2.6562,2.6604,2.6618,2.6638,2.6672,2.6706,2.6755,2.6797,2.6822,2.6851,2.6893,2.6951,2.6934,2.6957,2.6956,2.6992,2.7065,2.6968,2.6969,2.6987,2.7154,2.7169,2.7183,2.7056,2.7059,2.7061,2.7152,0,2.6644,2.6731,2.6733,2.6813,2.6854,2.6841,2.6885,2.6911,2.6922,2.6959,2.697,2.7012,2.6986,2.7,2.7034,2.7048,2.7098,2.7042,2.7097,2.7099,2.7091,2.7199,2.7215,2.73,2.7164,2.7166,2.7167,0,2.6751,2.6786,2.687,2.69,2.6918,2.6957,2.6997,2.7032,2.7062,2.7067,2.7095,2.7089,2.7141,2.7104,2.7176,2.7138,2.7161,2.7171,2.7175,2.718,2.7138,2.7209,2.7327,2.734,2.7186,2.7184,2.7183,0,2.6817,2.6885,2.6944,2.6961,2.6998,2.7026,2.7043,2.7071,2.7097,2.7131,2.7149,2.7189,2.7211,2.7243,2.7249,2.7221,2.7323,2.7285,2.733,2.733,2.7352,2.7351,2.7476,2.7365,2.7365,2.7365,2.7365,0,2.6909,2.6962,2.6975,2.7011,2.7071,2.7073,2.7132,2.7147,2.7172,2.7213,2.7203,2.7241,2.7247,2.7287,2.7292,2.7353,2.7362,2.7369,2.737,2.7371,2.737,2.7386,2.738,2.7368,2.7367,2.7367,2.7366,0,2.6993,2.7003,2.7068,2.7098,2.7107,2.715,2.7176,2.7212,2.7223,2.7274,2.7286,2.7303,2.735,2.7359,2.7414,2.7418,2.749,2.7485,2.748,2.748,2.7525,2.7521,2.7666,2.7686,2.7561,2.7562,2.7563,0,2.7051,2.7091,2.7127,2.7153,2.7172,2.7214,2.7241,2.7246,2.7275,2.7314,2.7346,2.7392,2.7429,2.7504,2.7522,2.7565,2.7561,2.7609,2.7567,2.7567,2.7563,2.7561,2.7566,2.7617,2.7618,2.7619,2.762,0,2.7154,2.7158,2.7197,2.7239,2.7272,2.7305,2.7336,2.7358,2.7368,2.7401,2.7449,2.7478,2.7535,2.7582,2.7625,2.7643,2.7634,2.7633,2.7646,2.7647,2.7644,2.7648,2.7503,2.763,2.7629,2.7628,2.7628,2.7627,2.7228,2.7264,2.7295,2.734,2.7364,2.7395,2.7431,2.7447,2.7487,2.7534,2.7535,2.7588,2.762,2.7678,2.7698,2.7741,2.7726,2.7744,2.7749,2.7754,2.7759,2.7637,2.7749,2.7748,2.7748,2.7748,2.7748,0,2.7332,2.7352,2.7393,2.7438,2.7474,2.7463,2.7497,2.7528,2.7575,2.7606,2.7643,2.77,2.7746,2.7768,2.7813,2.7843,2.784,2.7855,2.7853,2.7858,2.7769,2.7754,2.7857,2.7857,2.7857,2.7857,2.7857,2.7856,2.739,2.7451,2.746,2.7534,2.7554,2.7606,2.7627,2.7656,2.7681,2.7744,2.7783,2.7797,2.7825,2.7873,2.7915,2.792,2.7938,2.7955,2.7959,2.7875,2.7864,2.7853,2.7839,2.7959,2.7959,2.8045,2.8046,2.8046]},{"header":{"parameterUnit":"m.s-1","parameterCategory":1,"la1":30.2991,"la2":30.254,"lo1":-89.0895,"lo2":-89.0444,"dy":0.0017,"dx":0.0017,"nx":28,"ny":28,"refTime":"2024-12-21T03:00:00:Z","depth":0,"parameterNumber":3,"parameterNumberName":"V-component_of_WINDS"},"data":[0,0,0,0,0,0,0,0,0,0,0,0,0,0,0,0,0,0,0,0,0,0,0,0,0,0,0,0,0,0,0,0,0,0,0,0,0,0,0,0,0,0,0,0,0,0,0,0,0,0,0,0,0,0,0,0,0,0,-3.5964,-3.5965,0,-3.6071,-3.6072,-3.6073,-3.6045,-3.6043,-3.6041,-3.6039,-3.6147,-3.6152,-3.6157,0,0,0,0,0,0,0,0,0,0,0,0,0,-3.5738,-3.5742,-3.5964,-3.5965,-3.5966,-3.607,-3.6072,-3.6073,-3.6046,-3.6043,-3.604,-3.6038,-3.6146,-3.6152,-3.6157,0,0,0,0,0,0,0,0,0,0,0,0,0,-3.5839,-3.5743,-3.5963,-3.5965,-3.5966,-3.607,-3.6072,-3.6074,-3.6046,-3.6043,-3.604,-3.6037,-3.6144,-3.6151,-3.6158,-3.6267,0,0,-3.6181,-3.6184,0,0,0,0,0,0,0,0,-3.5834,-3.5848,-3.5964,-3.5965,-3.5967,-3.6041,-3.6032,-3.6138,-3.6047,-3.6016,-3.6039,-3.6035,-3.6115,-3.6124,-3.6151,-3.6272,-3.6276,-3.6181,-3.6186,-3.6189,-3.6191,0,0,0,0,0,0,0,-3.5827,-3.5843,-3.6006,-3.5965,-3.5967,-3.5961,-3.5972,-3.6052,-3.6082,-3.6018,-3.6017,-3.603,-3.6115,-3.6144,-3.6153,-3.6278,-3.6181,-3.6187,-3.6192,-3.6195,-3.6497,-3.6501,0,0,0,0,0,0,-3.5818,-3.5837,-3.6002,-3.6009,-3.5891,-3.5968,-3.598,-3.6021,-3.6081,-3.6087,-3.6032,-3.6028,-3.6133,-3.6145,-3.6157,-3.6291,-3.6189,-3.6195,-3.62,-3.6493,-3.6498,-3.6502,0,0,0,0,0,0,-3.5813,-3.5833,-3.5998,-3.5923,-3.5943,-3.5975,-3.6021,-3.6024,-3.6054,-3.6091,-3.6096,-3.6057,-3.6131,-3.6147,-3.6241,-3.6294,-3.6199,-3.6205,-3.6489,-3.6495,-3.65,-3.6557,0,0,0,0,0,0,-3.5807,-3.5832,-3.5872,-3.5924,-3.5948,-3.6079,-3.6024,-3.6029,-3.6066,-3.6062,-3.6115,-3.6121,-3.613,-3.623,-3.6248,-3.6302,-3.6211,-3.6484,-3.6492,-3.6498,-3.6551,-3.6564,-3.6575,0,0,0,0,0,-3.5799,-3.5883,-3.5875,-3.5895,-3.5999,-3.6082,-3.6096,-3.6104,-3.6071,-3.6113,-3.6138,-3.612,-3.6285,-3.624,-3.626,-3.6317,-3.6481,-3.649,-3.6498,-3.6545,-3.6561,-3.6575,0,0,0,0,0,0,-3.5836,-3.589,-3.5881,-3.5984,-3.6029,-3.6078,-3.6131,-3.6121,-3.6176,-3.6169,-3.6177,-3.619,-3.6286,-3.6311,-3.6259,-3.6427,-3.6378,-3.6391,-3.6408,-3.6424,-3.6436,-3.6428,-3.6217,0,0,0,0,0,-3.5856,-3.5919,-3.5963,-3.605,-3.6073,-3.6098,-3.6135,-3.6138,-3.6185,-3.6203,-3.6235,-3.6281,-3.6344,-3.6385,-3.6444,-3.6554,-3.6567,-3.6604,-3.6616,-3.6626,-3.6637,-3.6701,-3.6718,-3.6529,-3.6529,-3.6529,0,0,-3.5899,-3.5936,-3.5975,-3.6059,-3.6094,-3.616,-3.6114,-3.6185,-3.6235,-3.6214,-3.6305,-3.633,-3.6382,-3.6486,-3.6533,-3.6509,-3.6693,-3.6637,-3.6644,-3.665,-3.6711,-3.6729,-3.6745,-3.6534,-3.6533,-3.6533,0,0,-3.601,-3.6043,-3.6121,-3.6158,-3.6213,-3.623,-3.6249,-3.63,-3.6316,-3.6408,-3.6395,-3.6454,-3.6561,-3.66,-3.6634,-3.6764,-3.6751,-3.6783,-3.6848,-3.6909,-3.6924,-3.6938,-3.6987,-3.7004,-3.6794,-3.6794,-3.6794,0,-3.6055,-3.6154,-3.6162,-3.6236,-3.6274,-3.626,-3.634,-3.6375,-3.6446,-3.6474,-3.6447,-3.6584,-3.6617,-3.6731,-3.6764,-3.679,-3.6814,-3.6777,-3.6922,-3.6935,-3.6948,-3.6995,-3.7013,-3.6798,-3.6797,-3.6797,-3.6797,0,-3.6209,-3.6278,-3.6335,-3.6406,-3.645,-3.6526,-3.6547,-3.6592,-3.6592,-3.6612,-3.6708,-3.6748,-3.6818,-3.6845,-3.6844,-3.696,-3.6944,-3.6919,-3.687,-3.6969,-3.7014,-3.7032,-3.6803,-3.6802,-3.6801,-3.68,0,0,-3.6345,-3.6422,-3.6442,-3.6476,-3.6537,-3.6591,-3.6668,-3.6737,-3.6776,-3.6826,-3.6892,-3.6985,-3.6964,-3.7002,-3.7007,-3.7061,-3.7165,-3.703,-3.7031,-3.7056,-3.7298,-3.7318,-3.7338,-3.7157,-3.716,-3.7163,-3.7295,0,-3.6463,-3.6599,-3.661,-3.6732,-3.6798,-3.6787,-3.6855,-3.69,-3.6922,-3.6981,-3.7005,-3.7072,-3.7037,-3.7061,-3.7114,-3.7141,-3.7214,-3.7132,-3.722,-3.7223,-3.7209,-3.7361,-3.7381,-3.7504,-3.7312,-3.7315,-3.7317,0,-3.6618,-3.6676,-3.6805,-3.686,-3.6888,-3.6949,-3.7015,-3.7071,-3.7124,-3.7136,-3.7181,-3.7179,-3.726,-3.7208,-3.7321,-3.7265,-3.7302,-3.7321,-3.7326,-3.7335,-3.7277,-3.7377,-3.7542,-3.7562,-3.7344,-3.7342,-3.734,0,-3.6707,-3.6817,-3.6909,-3.6938,-3.7004,-3.7047,-3.7077,-3.7126,-3.7168,-3.7226,-3.7254,-3.7319,-3.7356,-3.7408,-3.7425,-3.7385,-3.7538,-3.7487,-3.7552,-3.7552,-3.7585,-3.7583,-3.7761,-3.7607,-3.7606,-3.7606,-3.7606,0,-3.6839,-3.6919,-3.6951,-3.7008,-3.7098,-3.7111,-3.7201,-3.7228,-3.7273,-3.7336,-3.733,-3.739,-3.7408,-3.7471,-3.7485,-3.7578,-3.7594,-3.7607,-3.761,-3.7609,-3.7607,-3.7634,-3.7626,-3.7611,-3.761,-3.7609,-3.7608,0,-3.6953,-3.6977,-3.7078,-3.7133,-3.7149,-3.7214,-3.7262,-3.7318,-3.734,-3.742,-3.744,-3.7474,-3.7549,-3.7571,-3.766,-3.7669,-3.778,-3.7774,-3.7762,-3.7763,-3.7828,-3.7822,-3.803,-3.8059,-3.7884,-3.7885,-3.7887,0,-3.7036,-3.7098,-3.7161,-3.7204,-3.7236,-3.7304,-3.7347,-3.7364,-3.7409,-3.7476,-3.7525,-3.7599,-3.7659,-3.7779,-3.7812,-3.7881,-3.7878,-3.7947,-3.7889,-3.7887,-3.7882,-3.7879,-3.7887,-3.7958,-3.796,-3.7961,-3.7962,0,-3.7182,-3.7191,-3.7254,-3.7323,-3.7376,-3.7431,-3.7483,-3.7518,-3.7543,-3.7595,-3.7672,-3.7719,-3.7812,-3.7886,-3.7957,-3.7988,-3.7981,-3.7981,-3.8,-3.8,-3.7991,-3.7999,-3.7794,-3.7976,-3.7974,-3.7973,-3.7973,-3.7972,-3.7284,-3.734,-3.7394,-3.7466,-3.7508,-3.7558,-3.7615,-3.7645,-3.771,-3.7787,-3.7793,-3.7877,-3.7931,-3.8026,-3.8062,-3.8129,-3.8109,-3.8136,-3.8143,-3.815,-3.8156,-3.798,-3.8141,-3.8141,-3.814,-3.814,-3.814,0,-3.7431,-3.7466,-3.7532,-3.7607,-3.7665,-3.7653,-3.7712,-3.7761,-3.7835,-3.7887,-3.7947,-3.8038,-3.8111,-3.8151,-3.8225,-3.8271,-3.827,-3.829,-3.8287,-3.8295,-3.8169,-3.8146,-3.829,-3.829,-3.829,-3.829,-3.829,-3.829,-3.7514,-3.761,-3.7627,-3.7744,-3.7778,-3.7862,-3.7897,-3.7944,-3.7986,-3.8087,-3.8149,-3.8175,-3.8223,-3.8301,-3.8368,-3.8378,-3.8407,-3.843,-3.8438,-3.8319,-3.8304,-3.8289,-3.8268,-3.8435,-3.8436,-3.8559,-3.856,-3.8561]}]]